AAL591 KLAX-KDCA

Flight info

Callsign AAL591
Flight time N/A
Altitude 35000
Route ORCKA5 LAS J146 DVC PUB HLC RBA SPI VHP J80 BOWRR OTMAN J30 BUCKO FRDMM6
Aircraft B752/M-SDE2E3FGHIJ3J4J7RWXY/LB1

Departure

Time 2026-04-24 20:50
Airport Los Angeles International Airport (KLAX)

Arrival

Time N/A
Airport Ronald Reagan Washington National Airport (KDCA)
Time Latitude Longitude Altitude Speed Heading
2026-04-24 20:13 33.93944 -118.40687 127 ft 0 kts
2026-04-24 20:40 33.93936 -118.40688 128 ft 2 kts
2026-04-24 20:41 33.93921 -118.40690 128 ft 2 kts
2026-04-24 20:41 33.93906 -118.40693 129 ft 2 kts 24°
2026-04-24 20:41 33.93894 -118.40704 129 ft 2 kts 52°
2026-04-24 20:41 33.93887 -118.40719 129 ft 1 kts 78°
2026-04-24 20:42 33.93887 -118.40726 129 ft 1 kts 85°
2026-04-24 20:42 33.93887 -118.40729 129 ft 0 kts 84°
2026-04-24 20:44 33.93887 -118.40727 129 ft 0 kts 83°
2026-04-24 20:44 33.93888 -118.40709 129 ft 5 kts 82°
2026-04-24 20:45 33.93898 -118.40633 128 ft 12 kts 83°
2026-04-24 20:45 33.93870 -118.40535 126 ft 9 kts 158°
2026-04-24 20:45 33.93831 -118.40481 126 ft 8 kts 92°
2026-04-24 20:45 33.93838 -118.40403 124 ft 10 kts 80°
2026-04-24 20:46 33.93847 -118.40313 123 ft 11 kts 83°
2026-04-24 20:46 33.93857 -118.40211 123 ft 12 kts 84°
2026-04-24 20:46 33.93869 -118.40100 122 ft 14 kts 82°
2026-04-24 20:46 33.93883 -118.39970 119 ft 17 kts 83°
2026-04-24 20:47 33.93898 -118.39815 116 ft 19 kts 85°
2026-04-24 20:47 33.93917 -118.39645 114 ft 21 kts 81°
2026-04-24 20:47 33.93935 -118.39461 113 ft 22 kts 84°
2026-04-24 20:47 33.93956 -118.39265 110 ft 24 kts 84°
2026-04-24 20:48 33.93975 -118.39058 108 ft 25 kts 84°
2026-04-24 20:48 33.93999 -118.38838 107 ft 26 kts 83°
2026-04-24 20:48 33.94020 -118.38617 107 ft 26 kts 84°
2026-04-24 20:48 33.94044 -118.38390 105 ft 28 kts 84°
2026-04-24 20:49 33.94066 -118.38155 104 ft 27 kts 82°
2026-04-24 20:49 33.94041 -118.38011 104 ft 15 kts 166°
2026-04-24 20:49 33.93985 -118.38028 104 ft 6 kts 256°
2026-04-24 20:49 33.93982 -118.38052 104 ft 4 kts 263°
2026-04-24 20:50 33.93949 -118.38361 104 ft 80 kts 263°
2026-04-24 20:50 33.93850 -118.39379 161 ft 159 kts 261°
2026-04-24 20:50 33.93708 -118.40818 896 ft 189 kts 261°
2026-04-24 20:50 33.93534 -118.42350 1963 ft 187 kts 260°
2026-04-24 20:51 33.93346 -118.43949 2478 ft 200 kts 262°
2026-04-24 20:51 33.93154 -118.45659 2927 ft 219 kts 259°
2026-04-24 20:51 33.92659 -118.47527 3202 ft 249 kts 248°
2026-04-24 20:51 33.91971 -118.49501 3842 ft 265 kts 247°
2026-04-24 20:52 33.91257 -118.51564 4648 ft 274 kts 248°
2026-04-24 20:52 33.90542 -118.53647 5840 ft 267 kts 247°
2026-04-24 20:52 33.89604 -118.55468 6992 ft 262 kts 225°
2026-04-24 20:52 33.88036 -118.56741 7529 ft 282 kts 204°
2026-04-24 20:53 33.86122 -118.57102 8478 ft 287 kts 175°
2026-04-24 20:53 33.84220 -118.56345 9404 ft 294 kts 149°
2026-04-24 20:53 33.82755 -118.54610 10255 ft 304 kts 124°
2026-04-24 20:53 33.81950 -118.52213 10717 ft 327 kts 102°
2026-04-24 20:54 33.81828 -118.49363 11106 ft 351 kts 84°
2026-04-24 20:54 33.82431 -118.46475 11493 ft 372 kts 67°
2026-04-24 20:54 33.83766 -118.43728 11983 ft 387 kts 49°
2026-04-24 20:54 33.85703 -118.41450 12731 ft 393 kts 38°
2026-04-24 20:55 33.87822 -118.39331 13467 ft 400 kts 38°
2026-04-24 20:55 33.89965 -118.37185 14303 ft 404 kts 37°
2026-04-24 20:55 33.92153 -118.34996 15025 ft 411 kts 37°
2026-04-24 20:55 33.94309 -118.32708 15734 ft 419 kts 44°
2026-04-24 20:56 33.96099 -118.29931 16420 ft 428 kts 56°
2026-04-24 20:56 33.97570 -118.26746 17057 ft 436 kts 62°
2026-04-24 20:56 33.98831 -118.23425 17802 ft 440 kts 65°
2026-04-24 20:56 34.00008 -118.20020 18340 ft 448 kts 67°
2026-04-24 20:57 34.01153 -118.16495 18958 ft 455 kts 68°
2026-04-24 20:57 34.02274 -118.12925 19629 ft 459 kts 68°
2026-04-24 20:57 34.03385 -118.09317 20128 ft 468 kts 68°
2026-04-24 20:57 34.04507 -118.05627 20760 ft 472 kts 68°
2026-04-24 20:58 34.05641 -118.01874 21277 ft 479 kts 68°
2026-04-24 20:58 34.06778 -117.98090 21830 ft 485 kts 68°
2026-04-24 20:58 34.08079 -117.94356 22335 ft 488 kts 59°
2026-04-24 20:58 34.09847 -117.90878 22836 ft 490 kts 49°
2026-04-24 20:59 34.12056 -117.87766 23419 ft 488 kts 39°
2026-04-24 20:59 34.14627 -117.85117 23995 ft 483 kts 28°
2026-04-24 20:59 34.17446 -117.83030 24520 ft 480 kts 20°
2026-04-24 20:59 34.20475 -117.81447 25123 ft 477 kts 15°
2026-04-24 21:00 34.23502 -117.79602 25464 ft 494 kts 24°
2026-04-24 21:00 34.26388 -117.77291 26124 ft 498 kts 29°
2026-04-24 21:00 34.29198 -117.74786 26444 ft 508 kts 32°
2026-04-24 21:00 34.31982 -117.72124 27012 ft 510 kts 33°
2026-04-24 21:01 34.34626 -117.69250 27385 ft 522 kts 41°
2026-04-24 21:01 34.36984 -117.65839 27895 ft 528 kts 49°
2026-04-24 21:01 34.39163 -117.62247 28259 ft 534 kts 49°
2026-04-24 21:01 34.41329 -117.58660 28686 ft 537 kts 50°
2026-04-24 21:02 34.43550 -117.54960 29161 ft 540 kts 50°
2026-04-24 21:02 34.45736 -117.51304 29575 ft 542 kts 50°
2026-04-24 21:02 34.47947 -117.47595 30024 ft 544 kts 50°
2026-04-24 21:02 34.50156 -117.43883 30590 ft 543 kts 50°
2026-04-24 21:03 34.52370 -117.40160 31023 ft 544 kts 50°
2026-04-24 21:03 34.54551 -117.36482 31625 ft 541 kts 50°
2026-04-24 21:03 34.56750 -117.32775 31934 ft 545 kts 51°
2026-04-24 21:03 34.58978 -117.29012 32386 ft 544 kts 51°
2026-04-24 21:04 34.61175 -117.25296 32676 ft 548 kts 51°
2026-04-24 21:04 34.63370 -117.21583 33217 ft 545 kts 51°
2026-04-24 21:04 34.65571 -117.17851 33659 ft 544 kts 51°
2026-04-24 21:04 34.67778 -117.14111 34004 ft 546 kts 51°
2026-04-24 21:05 34.70003 -117.10330 34345 ft 547 kts 50°
2026-04-24 21:05 34.72180 -117.06629 34878 ft 541 kts 50°
2026-04-24 21:05 34.76579 -116.99145 34958 ft 543 kts 51°
2026-04-24 21:06 34.80928 -116.91721 34955 ft 537 kts 50°
2026-04-24 21:06 34.85244 -116.84352 34963 ft 540 kts 51°
2026-04-24 21:07 34.89559 -116.76954 34951 ft 536 kts 51°
2026-04-24 21:07 34.94203 -116.69908 34927 ft 531 kts 41°
2026-04-24 21:08 34.99232 -116.63283 34901 ft 532 kts 42°
2026-04-24 21:08 35.04221 -116.56699 34887 ft 530 kts 42°
2026-04-24 21:09 35.09204 -116.50115 34885 ft 532 kts 42°
2026-04-24 21:09 35.14217 -116.43481 34874 ft 530 kts 42°
2026-04-24 21:10 35.19199 -116.36876 34887 ft 531 kts 41°
2026-04-24 21:10 35.24190 -116.30244 34885 ft 528 kts 42°
2026-04-24 21:11 35.29160 -116.23630 34889 ft 530 kts 42°
2026-04-24 21:11 35.34166 -116.16957 34885 ft 533 kts 43°
2026-04-24 21:12 35.39149 -116.10297 34878 ft 531 kts 42°
2026-04-24 21:12 35.44094 -116.03676 34886 ft 530 kts 42°
2026-04-24 21:13 35.49097 -115.96966 34889 ft 532 kts 42°
2026-04-24 21:13 35.54065 -115.90288 34906 ft 532 kts 43°
2026-04-24 21:14 35.59034 -115.83594 34909 ft 531 kts 42°
2026-04-24 21:14 35.63982 -115.76907 34914 ft 534 kts 43°
2026-04-24 21:15 35.68930 -115.70105 34914 ft 532 kts 43°
2026-04-24 21:15 35.73882 -115.63287 34862 ft 539 kts 43°
2026-04-24 21:16 35.78822 -115.56477 34940 ft 533 kts 43°